Home

Run scraper

District Dashboard

The bold notices are new and require basic data entry.

ID Number Applicant Post Date Expiration Status
1299835 SPK-2009-01483 2017-09-05 2017-09-22
1299514 SPK-2017-00110 2017-09-05 2017-09-20
1298557 SPK 2017-00745 2017-09-01 2017-09-18
1291805 The U.S. Army Corps of Engineers 2017-08-24 2017-09-23
1280828 SPK-2007-01985 2017-08-16 2017-09-12
1265662 SPK 2016-00149 2017-08-02
1265276 SPK 2015 00819 2017-08-02
1254375 SPK-2007-01985 2017-07-21 2017-09-12
1243435 SPK-2012-00286 2017-07-11 2017-08-10
1225788 SPK-2016-00284 2017-06-22 2017-07-07
1210861 SPK-2002-75568 2017-06-12 2017-07-13
1210748 Announcement of Next Regulatory Program Workshop in Sacramento 2017-06-12 2017-06-30
1209885 On March 22 2017-06-09 2017-07-12
1209874 SPK-2017-00005 2017-06-09 2017-06-29
1209835 SPK-2001-00147 2017-06-09
1206956 SPK-2000-00386 2017-06-07 2017-07-06
1202707 SPK-2015-00923 2017-06-05 2017-07-03
1201202 SPK-2016-00412 2017-06-02 2017-07-01
1200839 The U.S. Army Corps of Engineers 2017-06-02 2017-07-02
1188158 SPK-2009-00104 2017-05-19 2017-06-09
1179306 Gibson Ranch 2017-05-10 2017-05-24
1175078 SPK-2014-00496 - US-40 Widening 2017-05-05 2017-06-05
1171344 SPK-2011-00107-UO - Provo Lakeview Parkway 2017-05-02 2017-06-01
1146500 This Public Notice announces the preliminary intent of the U.S. Army Corps of Engineers Sacramento District to accept funds contributed by the California Department of Water Resources in order to expedite processing of their permit applications which would implement projects related to system improvements 2017-04-10 2017-04-25
1139944 On March 22 2017-04-04
1139768 On September 9 2017-04-04
1137725 SPK-2016-00175 2017-03-31 2017-04-30
1131384 The U.S. Army Corps of Engineers 2017-03-27 2017-04-21
1130004 On January 6 2017-03-24
1128026 Sacramento District Final Regional Conditions for the 2017 Nationwide Permits for California 2017-03-24
1126962 SPK-2015-00412 2017-03-22 2017-04-21
1125721 SPK-2001-00147 2017-03-21 2017-04-21
1122612 SPK-2016-00679 2017-03-17 2017-04-20
1111396 The U.S. Army Corps of Engineers 2017-03-13 2017-04-18
1111355 Announcement of Next Regulatory Program Workshop 2017-03-13 2017-03-30
1110207 SPK-1994-00040 2017-03-10 2017-04-10
1097154 SPK-2014-00817 2017-02-28 2017-04-01
1094591 On February 21 2017-02-24
1087510 SPK-2010-00319 2017-02-17 2017-03-18
1087468 SPK-2009-00387 2017-02-17 2017-03-03
1082268 SPK-2014-00581 2017-02-13
1080049 On February 10 2017-02-10 2017-04-10
1064457 SPK-2006-00561 2017-01-30 2017-03-01
1057363 The U.S. Army Corps of Engineers 2017-01-23 2017-03-13
1049082 SPK-1999-00737 2017-01-12
1048984 On January 6 2017-01-12
1045205 SPK-2005-00852 2017-01-09 2017-02-01
1038307 (missing) 2016-12-27 2017-01-27
1037192 SPK-2003-00025 2016-12-23 2017-01-17
1032706 SPK-1999-00715 2016-12-16 2017-01-30
1021637 SPK-2009-01213 2016-12-06 2017-01-06
1014668 Elliott Homes 2016-11-29 2016-12-14
1012828 SPK-2016-00710 2016-11-23 2016-12-23
1004500 SPK-2008-00331 2016-11-15 2016-12-16
999810 SPK-2016-00005 2016-11-09 2016-11-25
1000516 DK Trust 2016-11-09 2016-12-09
992739 SPK-1999-00737 2016-11-01 2016-11-17
989347 SPK-2003-00199 2016-10-28 2016-11-27
970264 SPK-2011-00384 2016-10-11
952517 SPK-2005-00957 2016-09-22 2016-10-21
943476 Issuance of Regional General Permit 13 2016-09-13
939929 SPK-2016-00457 2016-09-09 2016-10-07
939856 The U.S. Army Corps of Engineers 2016-09-09
939422 SPK-2010-00417 2016-09-09 2016-10-10
939185 The U.S. Army Corps of Engineers 2016-09-09 2016-10-10
923711 SPK-2016-00005-Regulatory Program Workshop – 13 September 2016 2016-08-25 2016-09-09
922218 The U.S. Army Corps of Engineers 2016-08-22 2016-09-21
918069 The U.S. Army Corps of Engineers 2016-08-17 2016-09-12
911543 SPK-2011-01248 Kane County 2016-08-02 2016-09-08
852499 SPK-1992-00105 - El Dorado County 2016-07-21 2016-08-20
831767 In accordance with Section 404 of the Clean Water Act (33 U.S.C. 1344) and Section 10 of the Rivers and Harbors Act of 1899 (33 U.S.C. 403) 2016-07-11 2016-08-11
831830 SPK-2015-00946 - Gunnison County 2016-07-08 2016-08-08
816153 The U.S. Army Corps of Engineers 2016-06-28 2016-07-31
815622 SPK-2016-00047 2016-06-27 2016-07-27
810738 SPK-2006-00689 2016-06-27 2016-07-22
812148 SPK-2014-00447 2016-06-24 2016-07-25
810751 SPK-2006-00689 2016-06-23 2016-07-22
809417 SPK-2014-00026 2016-06-23 2016-07-21
805826 SPK-2015-00513 2016-06-21 2016-07-22
802298 (missing) 2016-06-17 2016-07-15
800916 On June 1 2016-06-16 2016-08-01
798790 On June 1 2016-06-14 2016-08-01
796320 SPK-2016-00385 2016-06-10 2016-07-11
795134 SPK-2014-00021 2016-06-09 2016-06-23
777627 SPK-2012-00515 2016-05-20 2016-06-20
775263 SPK-2013-00229 2016-05-18 2016-06-03
760658 The District Engineers for the Albuquerque (SPA) 2016-05-17 2016-06-17
760713 SPK-2005-00325 2016-05-16 2016-06-16
754154 On May 6 2016-05-06 2016-07-06
753469 SPK-2006-01050 2016-05-06
740714 SPK-2014-00221 - City of Durango 2016-04-22 2016-05-06
740686 SPK-2007-00367 - modify the Animas River Wetlands 2016-04-22 2016-05-23
740656 SPK-2016-00220 - Port of Stockton 2016-04-22 2016-05-23
738547 SPK-2011-00684 2016-04-20 2016-05-19
737731 On March 30 2016-04-20
709782 SPN-2009-00443 2016-03-31
698099 The U.S. Army Corps of Engineers 2016-03-18 2016-04-05
691992 The U.S. Army Corps of Engineers Sacramento District has extended the comment period for Public Notice SPK-1992-50255 (the Narrows Reservoir project) Sanpete Water Conservancy District (Edwin Sunderland) has applied for a permit to place fill material and/or work in approximately 71.9 acres of wetlands and 26 2016-03-11 2016-04-22
691592 The U.S. Army Corps of Engineers 2016-03-11 2016-03-30
690597 SPK-2016-00005 2016-03-10
690332 SPK-2013-00045 2016-03-10 2016-04-11
686129 SPK-2004-00116 2016-03-04 2016-04-04
686059 SPK 2016-00149 2016-03-04 2016-03-18
684190 The U.S. Army Corps of Engineers 2016-03-02 2016-03-14
684142 SPK-2016-00112 2016-03-02 2016-04-04
682352 SPK 2014-00581 2016-02-29 2016-02-17
671217 SPK-2002-50464 2016-02-23
670353 SPK-1992-50255 2016-02-22 2016-04-22
657520 SPK-2012-01323 2016-02-17 2016-03-02
655792 16 August 2013 2016-02-12 2016-02-27
643329 SPK-2009-01357 2016-01-15 2016-02-03
643219 SPK-2005-00485 2016-01-14 2016-02-15
643215 SPK-2016-0005 2016-01-14 2016-02-11
639732 SPN-2009-00443 2015-12-31 2016-02-01
632094 SPK 2015-00819 2015-12-02 2015-12-22
631262 The District has established minimum standards for delineation reports to insure consistency and accuracy in the delineation of aquatic resources 2015-11-25
630814 California Department of Water Resources has applied for a permit to place dredged or fill material and work in approximately 2.49 acres of waters of the United States to construct a rock salinity barrier in West False River to preserve water quality in the Central Delta. The approximately 2.49-acre project site is located on West False River 2015-11-20 2015-12-21
630054 SPK-2002-50464 2015-11-16 2015-12-04
628526 PK-2011-00467 2015-11-10 2015-12-14
626608 SPK-2014-01048 2015-10-29 2015-11-25
625780 SPK-2012-00179 2015-10-23 2015-11-23
625768 SPK-2015-00034 2015-10-23 2015-11-23
621204 SPK-1997-00652 2015-09-30
620836 South Pacific Divsion (SPD) Updated BEI and CE Templates 2015-09-28 2015-10-30
620554 ACD-TI Oakley 2015-09-25 2015-10-26
620504 SPK-2012-01298 2015-09-25 2015-10-23
620494 SPK 2015-00818 2015-09-25 2015-10-12
618375 SPK-2013-01098 2015-09-23
617709 The U.S. Army Corps of Engineers 2015-09-17 2015-10-15
616901 SPN-2009-00443 2015-09-11 2015-10-26
616568 SPK-2008-00861 2015-09-09 2015-11-09
613403 SPK-2015-00572 2015-08-12 2015-09-11
613402 SPK-2008-01708 2015-08-12 2015-08-27
611781 SPK-2014-01067 2015-08-06 2015-09-07
611514 SPK-2004-00323 2015-07-30 2015-08-31
611418 SPK-2013-01098 2015-07-29 2015-08-31
610956 SPK-2014-01167 2015-07-24 2015-08-08
610747 SPK-2014-01138 2015-07-23 2015-07-25
610677 SPK-2008-00861 2015-07-22 2015-07-29
610300 SPK-1901-09804 2015-07-20 2015-08-20
600499 SPK-2014-01100 2015-06-17 2015-07-17
590790 SPK-1901-09804 2015-06-05 2015-07-18
590179 On May 4 2015-06-01 2015-06-30
590155 SPK-2013-00923 2015-06-01 2015-06-15
589091 SPK-2014-01036 2015-05-19 2015-06-17
588099 SPK-1996-50498 2015-05-08 2015-06-05
587189 SPK-2002-00561 2015-05-01 2015-06-15
586505 Barrett Winn 2015-04-24 2015-05-08
586503 SPK-2014-00187 2015-04-24
583889 SPK-2006-00802 2015-04-10 2015-05-11
583799 SPK-2014-00187 2015-04-07 2015-04-22
583465 The U.S. Army Corps of Engineers 2015-04-03 2015-04-15
581664 SPK-2006-00650 2015-03-27 2015-04-11
580528 SPK-2007-01905 2015-03-13 2015-04-27
580390 SPK-2004-00290 2015-03-13 2015-04-13
580389 SPK-2011-00409 2015-03-13 2015-03-13
579594 Placer County proposes to establish an In-Lieu Fee Program that would include approximately 212 2015-03-09 2015-04-09
571221 SPK-2015-00049 2015-02-27 2015-03-27
562903 SPK-2014-00187 2015-02-27 2015-03-30
570805 SPK-2014-01067 2015-02-25 2015-03-25
566674 SPK-2004-00756 2015-02-19 2015-03-18
566179 SPK-2005-75121 2015-02-18 2015-02-20
562949 Liberty Ranch 2015-01-30 2015-03-02
562889 SPK-2014-01187 2015-01-30 2015-02-13
562393 SPK-2014-00130 2015-01-27 2015-02-20
562383 SPK-2015-00034 2015-01-26 2015-02-25
559182 SPK-2004-00116 2015-01-08 2015-01-28
559146 Lewis Antonio Mountain Ranch LLC is proposing to establish the Antonio Mountain Ranch Conservation and Mitigation Bank 2015-01-07 2015-02-05
558792 Tesoro Viejo 2014-12-24 2015-02-07
558786 The U.S. Army Corps of Engineers 2014-12-24 2015-01-15
558601 SPK-1995-00412 - Correction to Appendix D 2014-12-19 2014-12-26
558191 The U.S. Army Corps of Engineers 2014-12-17 2015-01-02
558156 SPK-2013-00095 2014-12-15 2014-12-30
558090 SPK-1997-00652 2014-12-12
555537 Lennar Fresno 2014-12-05 2014-12-20
555367 SPK-2004-00116 2014-12-04 2015-01-15
555236 SPK-2014-00921 2014-12-02 2014-12-31
555040 SPK-1995-00412 2014-11-26 2015-01-24
554978 SPK-2014-00763 2014-11-25 2014-12-24
554842 SPK-2012-00370 2014-11-24 2014-12-29
551259 SPK-2013-01028-SG 2014-11-05 2014-12-01
547805 SPK-2014-00381 2014-11-04 2014-11-19
547477 SPK-1995-00412 2014-10-30 2014-12-09
509883 On 21 April 2014 2014-10-14 2014-10-14
507393 SPK-2012-00286 2014-10-10
503423 SPK-2014-00211 2014-10-10 2014-10-22
503478 SPK-2007-00019 2014-10-08 2014-11-10
503270 SPK-2014-00711 2014-10-03 2014-11-06
502728 SPK-2004-50130 2014-09-24
499979 SPK-2013-00020 2014-09-22 2014-10-09
494758 SPK-1997-00652 2014-09-15 2014-08-29
497047 The U.S. Army Corps of Engineers 2014-09-09
497018 SPK-2013-00439 2014-09-09 2014-09-24
496867 SPK-2012-01287 2014-09-05 2014-10-06
494591 SPK-2014-00703 Yuba County 2014-08-22 2014-09-06
494087 (missing) 2014-08-12 2014-09-15
490625 SPK-2014-00500 2014-08-01 2014-08-15
486814 SPK-2009-01482 2014-07-28 2014-09-02
486512 SPK-1999-00737 2014-07-25 2014-08-24
485585 SPK-2013-00240 2014-06-17 2014-07-16
485348 SPK-2014-00479 2014-06-06 2014-06-21
485207 SPK-2008-00909 2014-06-02 2014-06-16
485200 Decision to Accept and Expend Funds 2014-06-02
485058 SPK-1997-50745 2014-05-27 2014-06-22
485057 On May 22 2014-05-27
484698 SPK-2013-00337 2014-05-09 2014-06-10
484568 The U.S. Army Corps of Engineers 2014-05-06
484545 SPK-2013-00580 Grand County 2014-05-05 2014-06-02
484426 (missing) 2014-04-29 2014-06-01
484231 SPK-2010-00929 2014-04-22 2014-05-23
484200 SPK-2004-00888 2014-04-22 2014-05-24
484143 SPK-2005-00938 - NOA for FEIS the Westbrook project 2014-04-18 2014-05-19
479565 SPK-2013-01098 - Proposed RGP 2014-04-04 2014-05-06
479564 The comment end date has been extended to April 29 2014-04-01 2014-04-29
479563 SPK-2003-00669 2014-03-31 2014-04-30
479562 (missing) 2014-03-27 2014-04-28
479561 This Special Public Notice announces the preliminary intent of the U.S. Army Corps of Engineers’ Sacramento District 2014-03-14 2014-03-31
479560 SPK-2009-01080 2014-03-12 2014-04-11
479559 LVP Revocable Trust 2014-02-12 2014-02-27
479558 SPK-2012-00544 - Sacramento County 2014-02-12 2014-02-27
479557 SPK-2004-00814 2014-02-11 2014-02-26
479556 SPK-2006-00554 2014-02-06
479555 SPK-2009-01482 2014-02-06 2014-03-31
479554 Drought conditions have developed over the past three years in many parts of the Corps of Engineers’ South Pacific Division. Regulatory project managers 2014-02-05
479553 SPK-2013-00590 2014-02-05 2014-03-07
479552 The U.S. Army Corps of Engineers 2014-01-31 2014-02-25
479551 UDOT Region 2 2014-01-24 2014-01-21
479550 SPK-2005-01115 2014-01-23 2014-02-06
479549 The U.S. Army Corps of Engineers 2014-01-10
479548 SPK-2008-00117 2014-01-10
479547 (missing) 2013-12-31
479546 SPK-2011-01010 2013-12-17 2014-02-02
479545 SPK-2011-00755 - UPRR 2013-12-13 2014-01-27
479544 SPK-2013-00734 2013-11-14 2013-12-13
479543 SPK-2005-00888 2013-11-13 2013-12-12
479542 (missing) 2013-11-04
479541 SPK-1999-00306 2013-10-28 2013-10-29
479540 Mr. Kirk Bone 2013-10-21 2013-11-20
479539 This public notice discusses the reissuance of Regional General Permit (RGP) 57 under a new name 2013-10-21 2013-11-20
479538 SPK-2013-00851 2013-10-18 2013-11-18
479536 SPK-2002-75568 2013-10-18 2013-11-01
479533 SPK-2012-01314 2013-10-18 2013-11-29
479537 SPK-2005-00959 - Sacramento County 2013-10-04 2013-11-07
479535 SPK-2004-50130 - RGP 6 Proposal 2013-09-19 2013-10-14
479534 SPK-2012-00310 2013-09-05 2013-10-04
479532 Juan Mercado 2013-08-26 2013-09-25
479531 SPK-2010-01058 SouthEast Connector 2013-08-23 2013-10-15
479530 The South Pacific Division has published a notice requesting public comment on DRAFT Regional Compensatory Mitigation and Monitoring Guidelines to be followed in South Pacific Division’s subordinate districts (Albuquerque 2013-08-23 2013-09-23
479529 The South Pacific Division has published a notice of updated procedures (12501-SPD 2013-08-08
479527 SPK-2007-00300 2013-08-08
479528 SPK-2007-02181 2013-08-07 2013-09-09
479526 SPK-2007-02130 2013-08-01 2013-09-02
479525 SPK-2007-02240 2013-08-01 2013-08-26
479524 (missing) 2013-07-29 2013-09-15
479523 SPK-2013-00254 2013-07-29 2013-08-26
479522 Clark County Department of Public Works 2013-07-24 2013-08-19
479521 SPK-2008-00171 2013-07-23 2013-09-23
479519 The U.S. Army Corps of Engineers 2013-07-15
479518 Great Salt Lake Minerals Corporation has submitted an amended permit application to construct the Great Salt Lake Minerals Solar Evaporation Ponds Expansion Project 2013-07-09 2013-08-08
479517 The Clark County Regional Flood Control District (District) has applied for reissuance of Regional General Permit 7 (RGP 7) to place dredged/fill material in waters of the United States to construct/maintain flood control facilities funded /built in accordance with the District’s Flood Control Program Master Plan in Clark County 2013-07-09 2013-07-24
479516 Philicia Lund has applied for a permit to work in approximately 0.09 acre of waters of the United States to construct the Lund Private Dock project. This project is located on the Sacramento River 2013-07-02 2013-07-17
479515 Joseph Gallo Farms 2013-06-28 2013-07-29
479514 Colorado State Parks 2013-06-18 2013-07-18
479513 The Final Environmental Impact Statement (FEIS) for the Sierra Vista Specific Plan is available for review and comment. This 1 2013-06-07 2013-07-08
479512 The Draft Environmental Impact Statement (DEIS) for the 397-acre Westbrook subdivision project is available for review and comment. This project proposes to fill 9.61 acres of waters of the U.S. A notice of availability will be posted in the Federal Register on May 31 2013-05-30 2013-07-15
479511 HBT of Wildhawk 2013-05-30 2013-05-17
479510 The U.S. Army Corps of Engineers 2013-05-23 2013-06-27
479509 SPK-1997-00732 - RGP Proposal 2013-05-17 2013-06-20
479508 The U.S. Army Corps of Engineers 2013-05-15
479507 SPK-2013-00134 2013-05-10 2013-06-20
479506 The U.S. Army Corps of Engineers 2013-04-30
479505 (missing) 2013-04-29 2013-05-30
479504 The Draft Environmental Impact Statement (DEIS) for the Placer Vineyards Specific Plan project is available for review and comment. A notice of availability will be posted in the Federal Register on April 26 2013-04-26 2013-06-10
479503 SPK-2012-00745 - (Duck Creek) Clark County 2013-04-23 2013-05-15
479502 SPK-2012-00462 - Sacramento River 2013-04-18 2013-05-17
479501 The U.S. Army Corps of Engineers 2013-04-17
479500 SPK-2009-01483 (Permit Phase 1 (PP1) of the California High-Speed Train project 2013-04-17 2013-04-18
479499 The Sacramento and San Francisco Districts announce their preliminary intent to accept funds contributed by the Solano County Water Agency subject to a series of limitations below: Section 214 of the Water Resources Development Act of 2000 (WRDA 2000 2013-04-17 2013-05-17
479498 The Sacramento District Corps of Engineers has issued a public notice announcing updates to the Colorado regional conditions for the 2012 nationwide permits. The purpose of this public notice is to announce revision of the attachments to the regional conditions for nationwide permits (NWP) in Colorado 2013-04-05
479497 The U.S. Army Corps of Engineers 2013-03-18
479496 SPK-2013-00206 2013-03-15 2013-04-03
479495 SPK-2005-00572 2013-03-15 2013-03-30
479494 On February 28 2013-03-04 2013-04-01
479493 January 10 2013-02-19
479492 MJM Properties 2013-02-12 2013-03-14
479491 The U.S. Army Corps of Engineers 2013-02-12 2013-03-15
479490 SPK-2010-00673 2013-02-12 2013-03-14
479487 SPK-2003-00630 - Placer County 2013-02-04 2013-03-08
479489 SPK-2008-00528-UO Cache County 2013-02-01 2013-02-27
479488 Richard Mendenhall 2013-02-01 2013-02-27
479486 The U.S. Army Corps of Engineers 2013-01-07
479485 SPK-2012-00515 - Moffat County 2013-01-02 2013-01-31
479484 SPK-2004-00323 2012-12-21 2013-02-04
479483 SPK-2005-50618 2012-12-13 2013-01-08
479482 SPK-2012-01287 2012-12-10 2013-01-11
479481 SPK-2000-00696 - San Joaquin County 2012-11-30 2012-12-29
479480 SPK-2001-00121 - San Joaquin County 2012-11-30 2012-12-29
479479 SPK-2011-00253-Garfield County 2012-11-26 2012-12-14
479478 SPK-2011-00873 - Fresno and Madera Counties 2012-11-14 2012-11-28
479477 Stonebridge Properties 2012-11-09 2012-12-10
479476 SPK-1999-00715 - Contra Costa County 2012-11-08 2012-12-10
479475 The U.S. Army Corps of Engineers 2012-10-30
479474 (missing) 2012-10-24 2012-11-23
479473 This Public Notice announces the evaluation of a prospectus to establish the Colusa Basin Mitigation Bank 2012-10-16 2012-11-19
479472 The U.S. Army Corps of Engineers 2012-10-05 2012-11-19
479471 The US Army Corps of Engineers 2012-10-04
479470 This Public Notice announces the preliminary intent of the U.S. Army Corps of Engineers 2012-10-02 2012-10-17
479469 The Redding Office of the U.S. Army Corps of Engineers 2012-09-27 2012-10-20
479468 Yolo County Natural Resources Manager 2012-09-26 2012-10-12
479467 The U.S. Army Corps of Engineers 2012-09-11
479466 The U.S. Army Corps of Engineers 2012-09-10
479465 The US Army Corps of Engineers 2012-08-22 2012-09-21
479464 The Nevada Department of Transportation has applied for a permit to place dredged or fill material and/or work in approximately 4.02 acres of waters of the United States to construct a new interchange. This project is located on Duck Creek 2012-08-15 2012-09-07
479463 The U.S. Army Corps of Engineers 2012-08-09
479462 The U.S. Army Corps of Engineers Sacramento District 2012-08-06
479461 This Public Notice announces the Decision of the U.S. Army Corps of Engineers 2012-08-02
479460 The Draft Environmental Impact Statement (DEIS) for the Sierra Vista Specific Plan project is available for review and comment. A notice of availability will be posted in the Federal Register on July 6 2012-07-06 2012-08-20
479459 This Public Notice announces the Decision of the U.S. Army Corps of Engineers 2012-07-02
479458 The Sacramento County Department of Economic Development (applicant) has applied for permits to place fill material in 40.3 acres of waters of the United States 2012-06-29 2012-08-13
479457 Reclamation District 2035 2012-06-27 2012-07-12
479456 The U.S. Army Corps of Engineers 2012-06-22
479455 SPK-2011-00076 2012-06-21 2012-07-20
479454 On June 13 2012-06-14
479453 Spanish Fork City 2012-06-13 2012-07-09
479452 Terry Johnson 2012-06-05 2012-06-29
479451 Wal-Mart Real Estate Business Trust has applied for a permit to place fill material in approximately 0.29 acre of waters of the United States to reconfigure Aspen Village Phase 4. The impacts associated with the construction of a commercial retail store will result in a cumulative impact of 1.25 acres of waters of the U.S. within the overall Aspen Village Commercial Development. This project is located approximately 2.5 miles west of Pagosa Springs on the south side of U.S. Highway 160 2012-05-31 2012-06-30
479450 Jim Hatheway 2012-05-31 2012-06-29
479449 SB & RBLI Land Company has applied for a permit to place fill material in approximately 2.67 acres of waters of the United States to construct housing 2012-05-25 2012-06-07
479448 The U.S. Army Corps of Engineers 2012-05-16
479447 The U.S. Army Corps of Engineers (Corps) 2012-05-10
479446 The Sacramento Area Flood Control Agency (SAFCA) has applied for a permit to place fill material and/or work in approximately 5.28 acres of waters of the United States to construct the Unionhouse Creek Channel Improvements project. This project is located along Unionhouse Creek in Sections 15 2012-05-08 2012-06-11
479445 The U.S. Army Corps of Engineers 2012-05-04
479444 The U.S. Army Corps of Engineers 2012-04-24
479443 The California Department of Water Resources has applied for a permit to place dredged or fill material and work in approximately 200 acres of waters of the United States to construct a tidal marsh restoration project. This project is located on Dutch Slough in Section 19 2012-04-05 2012-05-07
479438 The Town of Gypsum has applied for a permit to place dredged or fill material into waters of the United States to construct the LEDE Reservoir Enlargement project. This project is located about 18.5 road miles southeast of the Town of Gypsum 2012-03-28 2012-04-27
479436 This Public Notice announces the preliminary intent of the U.S. Army Corps of Engineers 2012-03-27 2012-04-11
479439 The Sacramento District has finalized regional conditions for the 2012 Nationwide Permits (NWPs) for the Central Valley and Sierra Nevada of California 2012-03-16
479442 This notice establishes standards and guidelines for maps and drawings submitted as part of delineations and applications for Corps permits and jurisdictional determinations. The intent of these standards is to improve the quality and consistency of maps and drawings and simplify and improve review and processing by Corps Regulatory project managers in the Corps' South Pacific Division (comprised of the Albuquerque 2012-03-05 2012-04-05
479440 Use of Functional or Condition Assessments in California To help standardize and streamline the evaluation of aquatic resources and associated mitigation under their Regulatory programs 2012-03-02
479441 Durango-La Plata County Airport has applied for a permit to place dredged or fill material in approximately 0.085 acres of waters of the United States to construct an infiltration gallery along with associated infrastructure within the Florida River and adjacent wetlands. This project is located on the Florida River within Section 30 of Township 34 North and Range 8 West 2012-02-29 2012-03-29

Data are available as CSV download in the following schemas